Left ArrowRight Arrow

32.19382, -80.73816

Hourly Observations for October 10, 2019

Temp ( °F °C ) Dew Point ( °F °C ) Humidity (%) Winds ( mph kmh ) Pressure ( in mb ) Visibility ( mi km ) Precip ( " mm )
12:15 am 00:15 Mostly Cloudy 72 22 63 17 73 73 NNE 10 17 30.12 1020 10 16 N/A
12:35 am 00:35 Cloudy 72 22 63 17 73 73 NNE 9 15 30.11 1020 10 16 N/A
12:55 am 00:55 Cloudy 72 22 63 17 73 73 NNE 12 19 30.11 1020 10 16 N/A
1:15 am 01:15 Cloudy 72 22 63 17 73 73 NNE 13 20 30.11 1020 10 16 N/A
1:35 am 01:35 Mostly Cloudy 72 22 63 17 73 73 NNE 12 19 30.11 1020 10 16 N/A
1:55 am 01:55 Mostly Cloudy 70 21 64 18 83 83 NNE 8 13 30.11 1020 10 16 N/A
2:15 am 02:15 Mostly Cloudy 70 21 64 18 83 83 NE 8 13 30.11 1020 10 16 N/A
2:35 am 02:35 Partly Cloudy 70 21 64 18 83 83 NNE 8 13 30.11 1020 10 16 N/A
2:55 am 02:55 Mostly Clear 70 21 64 18 83 83 NNE 8 13 30.11 1020 10 16 N/A
3:15 am 03:15 Clear 68 20 64 18 88 88 NNE 10 17 30.10 1019 10 16 N/A
3:35 am 03:35 Clear 68 20 63 17 83 83 NNE 9 15 30.10 1019 10 16 N/A
3:55 am 03:55 Clear 68 20 63 17 83 83 NNE 10 17 30.10 1019 10 16 N/A
4:15 am 04:15 Clear 68 20 64 18 88 88 NNE 10 17 30.10 1019 10 16 N/A
4:35 am 04:35 Clear 68 20 63 17 83 83 NNE 13 20 30.10 1019 10 16 N/A
4:55 am 04:55 Clear 66 19 63 17 88 88 NNE 14 22 30.10 1019 10 16 N/A
5:15 am 05:15 Clear 66 19 63 17 88 88 NNE 10 17 30.10 1019 10 16 N/A
5:35 am 05:35 Clear 66 19 63 17 88 88 NNE 10 17 30.11 1020 10 16 N/A
6:50 am 06:50 Clear 64 18 61 16 88 88 N 12 19 30.12 1020 10 16 N/A
7:50 am 07:50 Sunny 64 18 61 16 88 88 N 14 22 30.13 1020 10 16 N/A
8:50 am 08:50 Sunny 68 20 61 16 78 78 N 14 22 30.15 1021 10 16 N/A
9:50 am 09:50 Sunny 68 20 61 16 78 78 N 14 22 30.16 1021 10 16 N/A
10:50 am 10:50 Mostly Sunny 72 22 61 16 69 69 NNE 16 26 30.16 1021 10 16 N/A
11:50 am 11:50 Mostly Sunny 73 23 61 16 65 65 NE 8 13 30.17 1022 10 16 N/A
12:50 pm 12:50 Partly Cloudy 73 23 63 17 69 69 NE 10 17 30.16 1021 10 16 N/A
1:50 pm 13:50 Partly Cloudy 75 24 61 16 61 61 NE 8 13 30.13 1020 10 16 N/A
2:50 pm 14:50 Partly Cloudy 75 24 61 16 61 61 ENE 7 11 30.11 1020 10 16 N/A
3:50 pm 15:50 Mostly Sunny 73 23 61 16 65 65 ENE 10 17 30.10 1019 10 16 N/A
4:50 pm 16:50 Sunny 73 23 63 17 69 69 E 6 9 30.09 1019 10 16 N/A
5:50 pm 17:50 Sunny 72 22 63 17 73 73 ESE 6 9 30.10 1019 10 16 N/A
6:50 pm 18:50 Sunny 70 21 63 17 78 78 E 3 6 30.10 1019 10 16 N/A
7:50 pm 19:50 Clear 66 19 63 17 88 88 ENE 3 6 30.10 1019 10 16 N/A
8:50 pm 20:50 Clear 70 21 63 17 78 78 E 5 7 30.10 1019 10 16 N/A
8:55 pm 20:55 Clear 70 21 63 17 78 78 ENE 3 6 30.10 1019 10 16 N/A
9:15 pm 21:15 Clear 70 21 63 17 78 78 VRB 5 7 30.10 1019 10 16 N/A
9:35 pm 21:35 Clear 70 21 63 17 78 78 VRB 6 9 30.11 1020 10 16 N/A
9:55 pm 21:55 Clear 70 21 63 17 78 78 NE 5 7 30.11 1020 10 16 N/A
10:15 pm 22:15 Clear 70 21 64 18 83 83 NE 6 9 30.11 1020 10 16 N/A
10:35 pm 22:35 Clear 70 21 64 18 83 83 NE 5 7 30.12 1020 10 16 N/A
10:55 pm 22:55 Clear 70 21 64 18 83 83 NE 6 9 30.12 1020 10 16 N/A
11:15 pm 23:15 Clear 70 21 64 18 83 83 NE 5 7 30.12 1020 10 16 N/A
11:35 pm 23:35 Clear 70 21 64 18 83 83 NNE 6 9 30.12 1020 10 16 N/A
11:55 pm 23:55 Mostly Clear 70 21 63 17 78 78 NE 7 11 30.12 1020 10 16 N/A

Powered by Vaisala Xweather